Regional Weather Roundup
Issued by NWS

Home | Current Version | Previous Version | Graphics & Text | Print | Product List | Glossary On
Versions: 1 2 3 4 5 6 7 8 9 10 11 12 13 14 15 16 17 18 19 20 21 22 23 24 25 26 27 28 29 30 31 32 33 34 35 36 37 38 39 40 41 42 43 44 45 46 47 48 49 50
000
ASUS45 KSLC 260310
RWRUT

UTAH REGIONAL WEATHER ROUNDUP
NATIONAL WEATHER SERVICE SALT LAKE CITY UT
900 PM MDT THU AUG 25 2016

UTZ001>011-023>025-260400-

NORTHERN UTAH

CITY           SKY/WX    TMP DP  RH WIND       PRES   REMARKS
BRIGHAM CITY     N/A     71  33  24 E5        30.01R
HILL AFB       CLEAR     73  25  16 NW5       30.04R
LOGAN          CLEAR     65  34  31 E3        30.02R
OGDEN          CLEAR     71  28  20 W3        30.01R
PROVO AIRPORT  PTCLDY    72  43  35 NW5       30.02R
SALT LAKE CITY PTCLDY    73  29  19 N3        29.99R
VERNAL         CLOUDY    61  42  49 SW3       30.14R
WENDOVER       CLEAR     73  27  17 SW5       30.00S
HEBER CITY     MOCLDY    66  23  19 S3        30.08R
WEST JORDAN    PTCLDY    71  31  23 SW7       30.03R

$$

UTZ012>022-026-027-260400-

SOUTHERN/CENTRAL UTAH

CITY           SKY/WX    TMP DP  RH WIND       PRES   REMARKS
BLANDING       CLOUDY    56  53  88 NE14      30.32F
BRYCE CANYON   MOCLDY    51  46  83 NW3       30.31R
CEDAR CITY     LGT RAIN  61  45  55 E5        30.13R
MILFORD        CLOUDY    68  41  37 S8        30.07F
MOAB/CYNLANDS  CLOUDY    66  45  46 NE12      30.12R
PRICE          MOCLDY    63  38  39 E5        30.17R
ST GEORGE      MOCLDY    75  52  43 SE14      29.98R THUNDER

$$

REGIONAL REPORTS     COLORADO/ARIZONA

CITY           SKY/WX    TMP DP  RH WIND       PRES   REMARKS
CRAIG, CO      CLOUDY    58  43  57 SE6       30.22S
GRAND JUNCTION CLOUDY    60  48  64 E12       30.21R
RIFLE          LGT RAIN  53  52  96 E12       30.29F
MONTROSE       LGT RAIN  55  50  83 S15       30.29S
CORTEZ         HVY RAIN  54  53  97 E8        30.33S FOG
PAGE, AZ       CLOUDY    65  54  67 S7        30.18R
GRAND CANYON     N/A    N/A N/A N/A MISG      30.28R
KINGMAN        PTCLDY    84  49  29 S10       29.96R
FLAGSTAFF      LGT RAIN  53  50  89 N3        30.31R

$$

REGIONAL REPORTS    NEVADA/IDAHO/WYOMING

CITY           SKY/WX    TMP DP  RH WIND       PRES   REMARKS
LAS VEGAS, NV  PTCLDY    96  28   9 W9        29.78R HX  90
ELY            CLEAR     64  30  27 SE9       30.10R
ELKO           CLEAR     72  15  11 NW8       30.04R
POCATELLO, ID  CLOUDY    66  27  23 E5        30.04R
BURLEY         CLEAR     64  39  39 W8        30.00S
EVANSTON, WY   CLOUDY    60  18  19 W10       30.18S
ROCK SPRINGS   CLOUDY    59  31  34 VRB3      30.20R

$$



USA.gov is the U.S. government's official web portal to all federal, state and local government web resources and services.